sat.trackr.live / text

‹ back to catalog

BNU-1 (JINGSHI 1)

NORAD 44529 · 2019-059B

PAYLOAD ACTIVE UNKNOWN

§ Identity

Operator
Country
PRC
Launch date
2019-09-12
Launch site
TAISC
Launch vehicle
Mass (kg)
RCS (m²)

External: N2YO · Heavens-Above · Gunter

§ Orbital elements

Epoch: 2026-09-12T04:40:18.780384Z

Period
99.42 min
Inclination
98.6175°
Eccentricity
0.0014376
Mean motion
14.48441800 rev/d
Perigee alt
720.5 km
Apogee alt
741.0 km
Semi-major
7,108.9 km
B*
6.0775e-5
RAAN
25.9485°
Arg perigee
108.9829°
Mean anomaly
251.2923°
Rev number
36,958

§ Raw data

BNU-1 (JINGSHI 1)1 44529U 19059B   26255.19466181  .00000182  00000+0  60775-4 0  99932 44529  98.6175  25.9485 0014376 108.9829 251.2923 14.48441800369582

JSON: /api/v1/satellites/44529 · /tle

For live sub-satellite position, see the globe view (requires WebGL).

§ Visibility from observer

Set your observer location to see the next 7 days of passes ≥ 10°. The values pass through the URL so the page stays shareable.

No JS? Fill the form by hand. The geolocation button needs JavaScript.

§ Radio — SatNOGS DB

ModeDescriptionDownlinkUplink
BPSK S-band telemetry 2.262 GHz

1 transmitter · refreshed weekly from db.satnogs.org